Time,TemperatureF,DewpointF,PressureIn,WindDirection,WindDirectionDegrees,WindSpeedMPH,WindSpeedGustMPH,Humidity,HourlyPrecipIn,Conditions,Clouds,dailyrainin,SoftwareType,DateUTC
2013-08-08 00:00:00,77.0,70.0,30.04,ESE,105,0.0,3.0,78,0.00,,,0.00,weatherlink.com 1.10,2013-08-08 10:00:00,
2013-08-08 00:18:00,76.9,70.0,30.04,ESE,109,0.0,10.0,79,0.00,,,0.00,weatherlink.com 1.10,2013-08-08 10:18:00,
2013-08-08 00:36:00,76.9,69.0,30.03,ENE,72,2.0,3.0,77,0.00,,,0.00,weatherlink.com 1.10,2013-08-08 10:36:00,
2013-08-08 00:54:00,76.8,69.0,30.03,SE,125,0.0,5.0,77,0.00,,,0.00,weatherlink.com 1.10,2013-08-08 10:54:00,
2013-08-08 01:12:00,76.8,69.0,30.02,NE,44,3.0,5.0,78,0.00,,,0.00,weatherlink.com 1.10,2013-08-08 11:12:00,
2013-08-08 01:31:00,76.3,69.0,30.02,ESE,107,0.0,4.0,79,0.01,,,0.01,weatherlink.com 1.10,2013-08-08 11:31:00,
2013-08-08 01:49:00,74.5,69.0,30.01,East,85,0.0,3.0,82,0.06,,,0.06,weatherlink.com 1.10,2013-08-08 11:49:00,
2013-08-08 02:07:00,73.9,68.0,30.01,SE,126,0.0,2.0,82,0.06,,,0.06,weatherlink.com 1.10,2013-08-08 12:07:00,
2013-08-08 02:25:00,74.4,69.0,30.01,ENE,69,0.0,3.0,82,0.06,,,0.06,weatherlink.com 1.10,2013-08-08 12:25:00,
2013-08-08 02:43:00,75.3,69.0,30.00,ENE,66,0.0,5.0,80,0.01,,,0.06,weatherlink.com 1.10,2013-08-08 12:43:00,
2013-08-08 03:02:00,75.3,69.0,30.00,East,98,0.0,4.0,81,0.00,,,0.06,weatherlink.com 1.10,2013-08-08 13:02:00,
2013-08-08 03:20:00,75.3,69.0,30.00,East,86,0.0,3.0,80,0.00,,,0.06,weatherlink.com 1.10,2013-08-08 13:20:00,
2013-08-08 03:38:00,75.2,68.0,29.99,North,5,0.0,4.0,78,0.00,,,0.06,weatherlink.com 1.10,2013-08-08 13:38:00,
2013-08-08 03:56:00,75.5,70.0,29.99,ESE,117,0.0,4.0,82,0.00,,,0.06,weatherlink.com 1.10,2013-08-08 13:56:00,
2013-08-08 04:14:00,75.4,68.0,30.00,East,94,0.0,7.0,79,0.00,,,0.06,weatherlink.com 1.10,2013-08-08 14:14:00,
2013-08-08 04:33:00,75.6,69.0,30.00,ESE,113,0.0,7.0,79,0.00,,,0.06,weatherlink.com 1.10,2013-08-08 14:33:00,
2013-08-08 04:51:00,75.6,69.0,30.00,East,93,0.0,3.0,79,0.00,,,0.06,weatherlink.com 1.10,2013-08-08 14:51:00,
2013-08-08 05:09:00,75.8,69.0,30.00,ENE,69,3.0,6.0,80,0.00,,,0.06,weatherlink.com 1.10,2013-08-08 15:09:00,
2013-08-08 05:28:00,75.8,69.0,30.01,NE,55,2.0,9.0,80,0.00,,,0.06,weatherlink.com 1.10,2013-08-08 15:28:00,
2013-08-08 05:46:00,75.7,69.0,30.01,ESE,107,0.0,5.0,80,0.00,,,0.06,weatherlink.com 1.10,2013-08-08 15:46:00,
2013-08-08 06:04:00,75.9,69.0,30.01,East,84,0.0,7.0,80,0.00,,,0.06,weatherlink.com 1.10,2013-08-08 16:04:00,
2013-08-08 06:22:00,75.7,69.0,30.02,East,101,2.0,4.0,79,0.00,,,0.06,weatherlink.com 1.10,2013-08-08 16:22:00,
2013-08-08 06:40:00,76.1,70.0,30.03,East,88,0.0,4.0,81,0.00,,,0.06,weatherlink.com 1.10,2013-08-08 16:40:00,
2013-08-08 06:58:00,77.7,71.0,30.03,SE,146,2.0,6.0,79,0.00,,,0.06,weatherlink.com 1.10,2013-08-08 16:58:00,
2013-08-08 07:17:00,78.5,71.0,30.03,East,95,2.0,5.0,77,0.00,,,0.06,weatherlink.com 1.10,2013-08-08 17:17:00,
2013-08-08 07:39:00,78.5,71.0,30.04,ENE,70,0.0,5.0,77,0.00,,,0.06,weatherlink.com 1.10,2013-08-08 17:39:00,
2013-08-08 07:57:00,80.2,70.0,30.04,ESE,108,0.0,5.0,72,0.00,,,0.06,weatherlink.com 1.10,2013-08-08 17:57:00,
2013-08-08 08:16:00,80.3,71.0,30.04,ESE,109,0.0,7.0,73,0.00,,,0.06,weatherlink.com 1.10,2013-08-08 18:16:00,
2013-08-08 08:33:00,80.6,71.0,30.05,SSE,164,2.0,7.0,73,0.00,,,0.06,weatherlink.com 1.10,2013-08-08 18:33:00,
2013-08-08 08:51:00,81.2,70.0,30.05,East,96,3.0,7.0,70,0.00,,,0.06,weatherlink.com 1.10,2013-08-08 18:51:00,
2013-08-08 09:09:00,81.8,71.0,30.05,East,84,3.0,7.0,70,0.00,,,0.06,weatherlink.com 1.10,2013-08-08 19:09:00,
2013-08-08 09:27:00,81.9,71.0,30.05,ENE,58,2.0,6.0,70,0.00,,,0.06,weatherlink.com 1.10,2013-08-08 19:27:00,
2013-08-08 09:46:00,83.4,72.0,30.05,East,80,1.0,5.0,68,0.00,,,0.06,weatherlink.com 1.10,2013-08-08 19:46:00,
2013-08-08 10:04:00,82.6,71.0,30.06,ENE,67,2.0,8.0,69,0.00,,,0.06,weatherlink.com 1.10,2013-08-08 20:04:00,
2013-08-08 10:22:00,82.2,72.0,30.05,ENE,67,0.0,6.0,71,0.00,,,0.06,weatherlink.com 1.10,2013-08-08 20:22:00,
2013-08-08 10:40:00,82.8,72.0,30.05,ENE,73,2.0,8.0,69,0.00,,,0.06,weatherlink.com 1.10,2013-08-08 20:40:00,
2013-08-08 10:57:00,83.1,72.0,30.05,NE,36,3.0,9.0,69,0.00,,,0.06,weatherlink.com 1.10,2013-08-08 20:57:00,
2013-08-08 11:16:00,83.9,71.0,30.05,NE,44,3.0,12.0,66,0.00,,,0.06,weatherlink.com 1.10,2013-08-08 21:16:00,
2013-08-08 11:34:00,84.1,72.0,30.05,NE,41,3.0,10.0,68,0.00,,,0.06,weatherlink.com 1.10,2013-08-08 21:34:00,
2013-08-08 11:52:00,84.3,72.0,30.05,NE,44,1.0,13.0,66,0.00,,,0.06,weatherlink.com 1.10,2013-08-08 21:52:00,
2013-08-08 12:11:00,83.7,72.0,30.04,NE,34,4.0,13.0,68,0.00,,,0.06,weatherlink.com 1.10,2013-08-08 22:11:00,
2013-08-08 12:29:00,83.3,72.0,30.04,NNE,17,3.0,9.0,69,0.00,,,0.06,weatherlink.com 1.10,2013-08-08 22:29:00,
2013-08-08 12:48:00,83.3,73.0,30.04,NNW,344,0.0,10.0,71,0.00,,,0.06,weatherlink.com 1.10,2013-08-08 22:48:00,
2013-08-08 13:24:00,83.8,72.0,30.04,North,11,4.0,8.0,67,0.00,,,0.06,weatherlink.com 1.10,2013-08-08 23:24:00,
2013-08-08 13:42:00,83.1,72.0,30.03,NE,55,3.0,7.0,69,0.00,,,0.06,weatherlink.com 1.10,2013-08-08 23:42:00,
2013-08-08 14:00:00,83.4,71.0,30.03,North,9,6.0,10.0,67,0.00,,,0.06,weatherlink.com 1.10,2013-08-09 00:00:00,
2013-08-08 14:19:00,83.7,72.0,30.02,NE,47,0.0,8.0,67,0.00,,,0.06,weatherlink.com 1.10,2013-08-09 00:19:00,
2013-08-08 14:37:00,84.4,71.0,30.01,ENE,71,2.0,7.0,65,0.00,,,0.06,weatherlink.com 1.10,2013-08-09 00:37:00,
2013-08-08 14:55:00,81.9,71.0,30.01,NE,50,2.0,6.0,69,0.00,,,0.06,weatherlink.com 1.10,2013-08-09 00:55:00,
2013-08-08 15:13:00,81.9,72.0,30.01,East,82,0.0,12.0,71,0.00,,,0.06,weatherlink.com 1.10,2013-08-09 01:13:00,
2013-08-08 15:32:00,81.3,71.0,30.01,East,80,5.0,12.0,70,0.00,,,0.06,weatherlink.com 1.10,2013-08-09 01:32:00,
2013-08-08 15:50:00,82.4,72.0,30.00,North,360,4.0,7.0,70,0.00,,,0.06,weatherlink.com 1.10,2013-08-09 01:50:00,
2013-08-08 16:08:00,82.1,71.0,30.00,NE,46,6.0,9.0,70,0.00,,,0.06,weatherlink.com 1.10,2013-08-09 02:08:00,
2013-08-08 16:44:00,82.5,71.0,29.99,NNE,17,2.0,8.0,68,0.00,,,0.06,weatherlink.com 1.10,2013-08-09 02:44:00,
2013-08-08 17:03:00,82.1,71.0,29.99,ENE,57,5.0,9.0,69,0.00,,,0.06,weatherlink.com 1.10,2013-08-09 03:03:00,
2013-08-08 17:21:00,80.8,71.0,30.00,North,5,2.0,9.0,72,0.00,,,0.06,weatherlink.com 1.10,2013-08-09 03:21:00,
2013-08-08 17:39:00,80.1,71.0,30.00,North,360,5.0,9.0,73,0.00,,,0.06,weatherlink.com 1.10,2013-08-09 03:39:00,
2013-08-08 17:57:00,80.2,72.0,30.00,NNW,332,5.0,6.0,76,0.01,,,0.07,weatherlink.com 1.10,2013-08-09 03:57:00,
2013-08-08 18:16:00,77.9,72.0,30.00,North,360,4.0,8.0,81,0.02,,,0.08,weatherlink.com 1.10,2013-08-09 04:16:00,
2013-08-08 18:34:00,77.3,71.0,30.01,NE,53,0.0,7.0,81,0.03,,,0.09,weatherlink.com 1.10,2013-08-09 04:34:00,
2013-08-08 18:52:00,77.2,71.0,30.01,ENE,61,1.0,6.0,81,0.03,,,0.09,weatherlink.com 1.10,2013-08-09 04:52:00,
2013-08-08 19:10:00,77.1,71.0,30.01,NE,51,2.0,7.0,82,0.01,,,0.09,weatherlink.com 1.10,2013-08-09 05:10:00,
2013-08-08 19:28:00,77.1,71.0,30.02,North,350,0.0,8.0,81,0.00,,,0.09,weatherlink.com 1.10,2013-08-09 05:28:00,
2013-08-08 19:47:00,76.9,70.0,30.03,NE,44,0.0,7.0,78,0.00,,,0.09,weatherlink.com 1.10,2013-08-09 05:47:00,
2013-08-08 20:05:00,76.8,69.0,30.03,NNE,30,1.0,8.0,78,0.00,,,0.09,weatherlink.com 1.10,2013-08-09 06:05:00,
2013-08-08 20:23:00,76.6,69.0,30.04,ESE,123,0.0,4.0,77,0.00,,,0.09,weatherlink.com 1.10,2013-08-09 06:23:00,
2013-08-08 20:41:00,76.8,70.0,30.05,ENE,61,0.0,3.0,80,0.00,,,0.09,weatherlink.com 1.10,2013-08-09 06:41:00,
2013-08-08 21:00:00,77.0,70.0,30.05,ENE,57,0.0,5.0,79,0.00,,,0.09,weatherlink.com 1.10,2013-08-09 07:00:00,
2013-08-08 21:18:00,76.9,70.0,30.06,SE,139,0.0,4.0,78,0.00,,,0.09,weatherlink.com 1.10,2013-08-09 07:18:00,
2013-08-08 21:36:00,76.6,70.0,30.06,North,360,0.0,4.0,80,0.00,,,0.09,weatherlink.com 1.10,2013-08-09 07:36:00,
2013-08-08 21:54:00,76.4,70.0,30.07,NNE,26,0.0,2.0,82,0.00,,,0.09,weatherlink.com 1.10,2013-08-09 07:54:00,
2013-08-08 22:12:00,76.3,70.0,30.07,NE,55,0.0,4.0,80,0.00,,,0.09,weatherlink.com 1.10,2013-08-09 08:12:00,
2013-08-08 22:31:00,76.4,70.0,30.07,NE,51,1.0,4.0,80,0.00,,,0.09,weatherlink.com 1.10,2013-08-09 08:31:00,
2013-08-08 22:49:00,76.3,70.0,30.07,SSE,168,0.0,3.0,81,0.00,,,0.09,weatherlink.com 1.10,2013-08-09 08:49:00,
2013-08-08 23:07:00,76.4,70.0,30.07,SE,129,0.0,3.0,80,0.00,,,0.09,weatherlink.com 1.10,2013-08-09 09:07:00,
2013-08-08 23:25:00,76.2,70.0,30.06,North,360,0.0,3.0,80,0.00,,,0.09,weatherlink.com 1.10,2013-08-09 09:25:00,
2013-08-08 23:43:00,75.9,69.0,30.06,ESE,110,0.0,3.0,80,0.00,,,0.09,weatherlink.com 1.10,2013-08-09 09:43:00,